P/2021 U3 ( Attard-Maury )

Japanese version
Home page
Updated on December 16, 2022

---------------------------------------------------------------------

* Profile

Discovery Date October 24, 2021
Magnitude 19.2 mag
Discoverer Georges Attard and Alain Maury (Mougins, France)

* Pictures

* Orbital Elements

Epoch 2022 Jan. 21.0 TT = JDT 2459600.5
T 2021 Oct. 24.86424 TT                                 Rudenko
q   1.8868215            (2000.0)            P               Q
n   0.11483157     Peri.  335.21227     +0.37207468     -0.19291696
a   4.1920698      Node    75.11306     +0.92780856     +0.10580473
e   0.5499070      Incl.   69.96226     -0.02704991     +0.97549393
P   8.58
From 279 observations 2021 Oct. 24-2022 Jan. 31, mean residual 0".6.

* Magnitudes Graph

        m1 = 14.5 + 5 log d + 10.0 log r

---------------------------------------------------------------------

The orbital elements are published on M.P.E.C. 2022-C56.
The magnitudes graphs are made with Comet for Windows.

---------------------------------------------------------------------

Copyright(C) Seiichi Yoshida (comet@aerith.net). All rights reserved.